Погода Верхний Баскунчак

Погода Верхний Баскунчак : погода сейчас, прогноз погоды и архив. Всё, что Вы хотите узнать о погоде Верхний Баскунчак!

Хотите узнать прогноз погоды Верхний Баскунчак? Тогда Вам сюда: Погода Верхний Баскунчак

Поиск расширенной информации на нашем сайте:

Другие новости

Новости СМИ2

Главная страница сайта

Новости сайта

03.07.2017

Напоминаем, что на нашем специализированном сайте Метеоцентр.Азия вы можете получить высокодетализированные автоматические прогнозы погоды по пунктам России, СНГ и мира в авиационном формате (включающие направление и скорость ветра, видимость, явления погоды, количество и форму облачности, нижнюю и верхнюю границу облачности).


Погода Верхний Баскунчак - сегодня

Время (UTC), дата Ветер
(°,м/с) 
Видим.   Явления Облачность Т
(°С)
Тd
(°С)
f(%) Тe
(°С)
Pmin
(гПа)
dP
(гПа)
Po
(мм)
O2
(г/м3)
Тmin Tmax R s Состояние
почвы
00 16.02.18 060 (СВ) 20000 м    ясно 
-11.8 -13.9 84 -16  1039.4  -0.1  776  328           
03 16.02.18 070 (В) 20000 м    3/0 верхняя 
[Ci fib]
-12.1 -14.4 83 -15  1039.9  0.5  776  329  -12.2      мокрый или
старый снег
50-90% 
06 16.02.18 080 (В) 20000 м    4/0 верхняя 
[Ci fib]
-9.6 -13.6 73 -14  1040.4  0.5  777  326  -12.4         
09 16.02.18 080 (В) 20000 м    3/0 верхняя 
[Ci fib]
-4.5 -11.4 59 -8  1039.5  -0.8  776  319           
12 16.02.18 080 (В) 5{10}  20000 м    ясно 
-2.9 -9.7 59 -6  1038.5  -1  775  317           
15 16.02.18 070 (В) 4{10}  20000 м    ясно 
-5.6 -9.7 73 -9  1038.2  -0.3  775  320    -2.8       
18 16.02.18 080 (В) 20000 м    ясно 
-7.2 -10.7 76 -11  1037.5  -0.7  775  322           
21 16.02.18 080 (В) 20000 м    ясно 
-8.9 -11.5 81 -13  1037.1  -0.5  774  324           
00 17.02.18 080 (В) 20000 м    ясно 
-9.8 -12.7 79 -14  1035.7  -1.4  773  324           
03 17.02.18 080 (В) 20000 м    ясно 
-11.1 -13.9 80 -15  1034.6  -1.1  772  326  -11.1      мокрый или
старый снег
50-90% 
06 17.02.18 080 (В) 20000 м    ясно 
-9.3 -13.4 72 -14  1034.3  -0.2  772  323  -11.2         
09 17.02.18 070 (В) 5{10}  20000 м    6/0 верхняя 
[Ci fib]
-5.3 -10.9 65 -9  1032.6  -1.7  771  318           
12 17.02.18 080 (В) 6-11{11}  20000 м    8/0 верхняя 
[Ci fib]
-3.2 -9.2 63 -7  1030.6  -1.9  770  315           
15 17.02.18 080 (В) 5{11}  20000 м    6/0 верхняя 
[Ci fib]
-5 -8.7 75 -9  1030.1  -0.6  769  317    -2.8       
18 17.02.18 080 (В) 5{10}  20000 м    ясно 
-6.4 -10 76 -10  1029.9  -0.1  769  318           
21 17.02.18 090 (В) 20000 м    ясно 
-7.7 -10.6 80 -11  1027.9  -2  767  319           
00 18.02.18 080 (В) 20000 м    ясно 
-9 -11.5 82 -13  1026.6  -1.4  766  320           
03 18.02.18 090 (В) 20000 м    ясно 
-8.3 -11 81 -12  1025.3  -1.3  765  319  -9.2      мокрый или
старый снег
50-90% 
06 18.02.18 100 (В) 20000 м    10/10 600 м 
[Sc]
-6.5 -9.4 80 -10  1025.2  765  317           
09 18.02.18 100 (В) 10 км  слаб. снег  10/10 300 м 
[Frnb|Ns]
-5.3 -8 81 -9  1023.9  -1.3  764  315           
12 18.02.18 100 (В) 4{10}  4000 м  слаб. снег  10/10 300 м 
[Frnb|Ns]
-5 -6.4 90 -8  1023  -0.9  764  314           
15 18.02.18 110 (В) 4000 м  в посл. час снег  10/10 600 м 
[Sc]
-4.8 -6.1 91 -7  1023.5  0.5  764  314    -4.8     
18 18.02.18 120 (ЮВ) 4000 м  дымка{снег}  10/10 600 м 
[Sc]
-4.4 -6.2 87 -7  1023.9  0.4  764  314           
21 18.02.18 120 (ЮВ) 4000 м  дымка  10/10 600 м 
[Sc]
-5.1 -5.9 94 -6  1023.4  -0.5  764  314           
00 19.02.18 110 (В) 4000 м  дымка  10/10 600 м 
[Sc]
-5 -5.7 95 -5  1023.1  -0.3  764  314           
Время (UTC), дата Ветер
(°,м/с) 
Видим.   Явления Облачность Т
(°С)
Тd
(°С)
f(%) Тe
(°С)
Pmin
(гПа)
dP
(гПа)
Po
(мм)
O2
(г/м3)
Тmin Tmax R s Состояние
почвы

Для получения пояснительной информации подведите курсор к названию столбца.

ПОГОДА Верхний Баскунчак - архив

Всё, что Вы хотите узнать о погоде Верхний Баскунчак - удобно и подробно!

Выберите нужную дату (начиная с 1 января 2015* года) и нажмите кнопку "Найти".
Будут отображены архивные сводки погоды по пункту Верхний Баскунчак, начиная с указанной даты.


Отображать данные в формате CSV (для использования в таблицах Excel)


Внимание! Наш архив погоды предназначен исключительно для личного некоммерческого использования в познавательных целях. Если Вам необходимы официальные справки о состоянии погоды (для производственных, юридических, коммерческих и т.п. целей), обращайтесь в органы Росгидромета.

*Примечание: данная дата относится к архиву по метеостанциям СССР (Россия, СНГ, Балтия).
Архив по метеостанциям Зарубежной Европы и Азии (кроме Китая) хранится 10 дней, по другим регионам земного шара (Китай, Африка, Америка, Австралия, Океания) - 1 день.

Верхний Баскунчак - район местоположения метеостанции


Название, широта, долгота, высота метеостанции:
Верхний Баскунчак 48.2°ш. 46.7°д. 34 м над ур. моря [Российская Федерация]

Дополнительная информация

В oтличие oт бoльшинства пoгoдных сайтoв мы публикуем пoдрoбную метеoинфoрмацию в детальнoм прoфессиoнальнoм фoрмате.

Характеристики температуры и влажнoсти вoздуха измеряются на высoте 2 м в тени вдали oт зданий и деревьев.
Скoрoсть ветра измеряется на высoте 10 м (на урoвне рoста челoвека скoрoсть ветра ниже в 1.5-2 раза). Если метеoстанция нахoдится в гoрoде или в лесу, тo скoрoсть ветра занижена на 2-4 м/с пo сравнению с oткрытым местoм. Скoрoсть ветра над акватoриями крупных рек и oзёр, а также на вершинах хoлмoв на 2-5 м/с выше, чем в oбычных услoвиях.
Атмoсфернoе давление в разных тoчках местнoсти мoжет значительнo oтличаться oт давления на метеoстанции, в зависимoсти oт услoвий рельефа (при пoдъёме на 10 м давление пoнижается примернo на 1 мм рт.ст.).